M-HOBBY • 11070 Novi Beograd • Bulevar Mihaila Pupina 123 • Tel: 011/711 89 19 • Mob. +381 63 80 95 154 • radno vreme: ponedeljak - petak 15-20 • subota 11-16

Eduard Brasin, Look i 3D – rok za naručivanje je do ponedeljka, 28. novembra 2022, do 20 časova!

»-d« i »–» označava poslednji komad

3DL17001 1:700 Life Buoy Space  6.5 

3DL32000 1:32 Space 3D decals 0.0 
3DL32001 1:32 Tornado GR.4 „Space“ 25.8 
3DL32002 1:32 DH.82A Tiger Moth „Space“ 10.1 
3DL32003 1:32 B-25H Space 17.7 
3DL32004 1:32 Remove Before Flight (white) Space 13.2 
3DL32005 1:32 Remove Before Flight (black) Space 13.2 
3DL32006 1:32 Hawk 81-A2 Space 11.7 
3DL32007 1:32 Bf 108 Space 10.1 
3DL32008 1:32 Yak-9T Space 14.5 
3DL32009 1:32 Yak-9K Space 13.2 

3DL48000 1:48 Space 3D decals 0.0 
3DL48001 1:48 Mi-24V  22.2 
3DL48002 1:48 P-51D-5 space 7.8 
3DL48003 1:48 P-51D-10 Mustang 7.8 
3DL48004 1:48 P-51D-15+ Mustang 7.8 
3DL48005 1:48 Spitfire Mk.I early space 7.8 
3DL48006 1:48 Spitfire Mk.I late space 7.8 
3DL48007 1:48 Spitfire Mk.II space 7.8 
3DL48008 1:48 Il-2 „Space“ 6.5 
3DL48009 1:48 P-38F „Space“ 8.7 
3DL48010 1:48 P-38G „Space“ 8.7 
3DL48011 1:48 P-38H „Space“ 8.7 
3DL48012 1:48 P-39Q „Space“ 7.8 
3DL48013 1:48 Mig-15 „Space“ 8.7 
3DL48014 1:48 Bf 109G-6 „Space“ 7.8 
3DL48015 1:48 F-14A „Space“ 22.2 
3DL48016 1:48 Mig-15bis Space 10.1 
3DL48017 1:48 Fw 190F-8 Space 10.1 
3DL48018 1:48 Mustang Mk.IV Space 8.7 
3DL48019 1:48 MV-22 Space 19.1 
3DL48020 1:48 B-17F Space 13.2 
3DL48021 1:48 B-17G Space 13.2 
3DL48022 1:48 Bf 109G-2 Space 7.8 
3DL48023 1:48 Tempest Mk.V Space 7.8 
3DL48024 1:48 B-17F/G radio compartment 11.7 
3DL48025 1:48 F-14D Space 19.1 
3DL48026 1:48 Mig-21bis Space 17.7 
3DL48027 1:48 Fw 190A-8/R2 Space 10.1 
3DL48028 1:48 Bf 109F-4 Space 7.8 
3DL48029 1:48 Spitfire Mk.IXc late version Space 10.1 
3DL48030 1:48 Tempest Mk.II Space 7.8 
3DL48031 1:48 Spitfire Mk.V Space 10.1 
3DL48032 1:48 Me 163B Komet Space 7.8 
3DL48033 1:48 Lancaster B Mk.I Space 15.7 
3DL48034 1:48 Mig-21MF Space 17.7 
3DL48035 1:48 Fw 190D-11/D-13 10.1 
3DL48036 1:48 P-51K-5 Space 8.7 
3DL48037 1:48 P-51K-10 Space 8.7 
3DL48038 1:48 Sopwith Camel Space 8.7 
3DL48039 1:48 Spitfire Mk.VIII Space 10.1 
3DL48040 1:48 F-4B Phantom II Space 19.1 
3DL48041 1:48 Spitfire Mk.XVI Space 10.1 
3DL48042 1:48 Mig-21R Space 17.7 
3DL48043 1:48 Mi-24D Space 22.2 
3DL48044 1:48 Z-126 Space 17.7 
3DL48045 1:48 Z-226 Space 10.1 
3DL48046 1:48 Fw 190A-3 Space 10.1 
3DL48047 1:48 Fw 190A-5 Space 10.1 
3DL48048 1:48 Chipmunck T.10 Space 7.8 
3DL48049 1:48 Bf 109E-4 Space 7.8 
3DL48050 1:48 A6M2 Space 10.1 
3DL48051 1:48 Remove Before Flight (white) Space 10.1 
3DL48052 1:48 Remove Before Flight (black) Space 10.1 
3DL48053 1:48 Mig-21PF grey Space 17.7  
3DL48054 1:48 Mig-21PF Space 17.7 
3DL48055 1:48 Bf 109E-7 Space 7.8 
3DL48056 1:48 Tornado ECR Space 19.1 
3DL48057 1:48 F-14A late Space 19.1 
3DL48058 1:48 OV-10A Space 11.7 
3DL48059 1:48 SR-71A Space 11.7 
3DL48060 1:48 Z-526AFS Akrobat Space 6.5 
3DL48061 1:48 Vampire F.3 „Space“ 10.1 
3DL48062 1:48 OV-10D+ „Space“ 13.2 
3DL48063 1:48 F-104A Space 13.2 
3DL48064 1:48 F-104C Space 13.2 
3DL48065 1:48 Il-2 Model 1943 Space 11.7 
3DL48066 1:48 OH-13 Space 8.7 
3DL48067 1:48 AH-1G Space 13.2 
3DL48068 1:48 F6F-3 Space 8.7 
3DL48069 1:48 F6F-5 Space 8.7 
3DL48070 1:48 Su-25 Space 13.2 
3DL48071 1:48 A-1H Space 13.2 
3DL48072 1:48 Go 242B 7.8 
3DL48073 1:48 A-1H 13.2 
3DL48074 1:48 Beaufighter Mk.VI 11.7 
3DL48075 1:48 Beaufighter Mk.X 11.7 
3DL48076 1:48 F4F-3 Late Space 15.7 
3DL48077 1:48 P-47D Razorback Space 15.7 
3DL48078 1:48 P-47D Bubbletop Space 15.7 
3DL48079 1:48 Fw 190A-8 Space 10.1 
3DL48080 1:48 F4F-3 early Space 14.5 
3DL48081 1:48 P-38J Space 10.1 
3DL48082 1:48 Spitfire F Mk.XVIII Space 14.5 
3DL48083 1:48 F-86F-40 Space 10.1 
3DL48084 1:48 Yak-9D Space 10.1 
3DL48085 1:48 Me 262A Space 8.7 
3DL48086 1:48 Spitfire Mk.XIII Space 14.5 
3DL48087 1:48 P-47N Space 10.1 
3DL48088 1:48 A6M3 Space 10.1 
3DL48094 1:48 Beuaford Mk.I Space 14.5 
3DL48095 1:48 Mil Mi-4 Space 13.2 
3DL48096 1:48 Z-326 Space 8.9 

3DL53001 1:350 US ensign flag WW2 Space 13.2 
3DL53002 1:350 US ensign flag modern Space 13.2 
3DL53003 1:350 IJN ensign flag WW2 Space 6.5 
3DL53004 1:350 Royal Navy ensign flag WW2 Space 6.5 
3DL53005 1:350 Royal Navy ensign flag (cruiser/destroyer) WW2 Space 6.5 
3DL53006 1:350 International Marine Signal Flag „Space“ 6.5 
3DL53007 1:350 Tirpitz flag Space 6.5 
3DL53008 1:350 IJN watertight doors Space 15.7 
3DL53009 1:350 German WW2 watertight doors Space 11.7 
3DL53010 1:350 Life Buoy Space 8.7 
3DL53011 1:350 Royal Navy watertight doors WW2 Space 10.1 
3DL53012 1:350 US Navy watertight doors WW2 Space 10.1 
3DL72000 1:72 Space 3D decals 0.0 
3DL72001 1:72 Z-37 6.5 
3DL72002 1:72 Mig-21MF 6.5 
3DL72003 1:72 Mig-21PF space 8.7 
3DL72004 1:72 Mig-21PFM space 8.7 
3DL72005 1:72 Ki-84 Hayate Space 7.8 
3DL72006 1:72 P-51B Space 7.8 
 
624001 1:24 Typhoon wheels 10.1 
624002 1:24 Typhoon guns 13.2 

632001 1:32 F-4C/D/E/F/G seat 19.1 
632002 1:32 F-4B/J/N/S seat 1:32 19.1 
632004 1:32 Bf 109E wheels 10.1 
632005- 1:32 F-4C/D/E/F/G wheels 10.1 
632006 1:32 F-4J/S wheels 10.1 
632007- 1:32 SD2 cluster bomb (German WW2) 22.2 
632008 1:32 F-4 exhaust nozzles USAF early 35.6 
632010 1:32 F-4 exhaust nozzles USAF late 35.6 
632011 1:32 F-4 exhaust nozzles USN late 1:32 35.6 
632013 1:32 GBU-24 bomb 10.1 
632014 1:32 B-25H/J wheels 10.1 
632015 1:32 P-51 wheels 10.1 
632016 1:32 He 219 wheels 10.1 
632017 1:32 B-17 wheels 1:32 10.1 
632018 1:32 Bf 109 G-6 wheels 10.1 
632019 1:32 F4U-1 wheels 10.1 
632020 1:32 Bf 109G-6 exhaust stacks 6.5 
632021 1:32 Bf 109G-6 undercarriage legs bronze 14.5 
632022 1:32 Bf 109G-6 cockpit 32.4 
632023 1:32 Ju 88 wheels early 10.1 
632025 1:32 Bf 109G-6 engine 40.1 
632026 1:32 B-17G guns 25.8 
632028 1:32 B-17G engine No.2 25.8 
632029 1:32 B-17G engine No.3 25.8 
632030 1:32 B-17G engine No.4 25.8 
632031 1:32 Me 262 wheels 10.1 
632032 1:32 F4U-1 engine 35.6 
632033 1:32 B-17 supercharger 10.1 
632035 1:32 Bf 109G cannon pods 13.2 
632036 1:32 US 250 lb bombs 10.1 
632038 1:32 Spitfire Mk.I/II wheels 10.1 
632040 1:32 Bf 109 G-10 wheels 10.1 
632042 1:32 Do 335 wheels 10.1 
632043 1:32 F-104 exhaust nozzle early 13.2 
632044 1:32 F-104 exhaust nozzle late 13.2 
632045 1:32 F-104 undercarriege wheels early 10.1 
632046 1:32 F-104 undercarriege wheels late 10.1 
632047 1:32 F-104 C2 ejection seat 13.2 
632048 1:32 F-104 MB 7 ejection seat 13.2 
632049 1:32 Lewis WW1 gun 5.8 
632050 1:32 Do 335 exhaust staks 6.5 
632052 1:32 F4U-1 wheels diamond pattern 10.1 
632053 1:32 F4U-1A cockpit 35.6 
632054 1:32 Lewis Mk.III WW1 gun 5.8 
632055 1:32 Fw 190F-8 wheels 10.1 
632056 1:32 Fw 190F-8 cockpit 32.4 
632057 1:32 Fw 190 undercarraige legs „bronze“ 14.5 
632059 1:32 Spandau WWI gun 8.7 
632060 1:32 Fw 190F-8 MG 131 mount 25.8 
632061 1:32 Mosquito FB Mk.IV wheels 10.1 
632063 1:32 Fw 190F-8 engine 35.6 
632064 1:32 Spitfire Mk.II cockpit 32.4 
632065 1:32 Mosquito Mk.VI wheels 10.1 
632066 1:32 Mosquito Mk.VI exhaust stacks 5.8 
632067 1:32 Vickers Mk.I WWI gun 5.8 
632070 1:32 MG 14 Parabellum WW I gun 5.8 
632072 1:32 GBU-12 bomb 13.2 
632073 1:32 P-39 wheels late 10.1 
632074 1:32 LAU-10/A ZUNI 13.2 
632075 1:32 Mk.84 bombs 10.1 
632076 1:32 Mirage IIIC wheels 10.1 
632077 1:32 Mosquito FB Mk.VI nose guns 25.8 
632078 1:32 Mosquito FB MK.VI gun bay 25.8 
632079 1:32 Bf 109 G-10 undercarriage legs-bronze 14.5 
632080 1:32 P-40 wheels w/pattern 10.1 
632081 1:32 P-39Q/N exhaust stacks 5.8 
632083 1:32 AIM-9B Sidewinder 10.1 
632084 1:32 AIM-7E Sparrow 13.2 
632087 1:32 A6M5c zero wheels 10.1 
632088 1:32 P-47D wheels 10.1 
632090 1:32 Mosquito FB Mk.VI engines 59.1 
632091 1:32 Mosquito FB MK.VI right engine 40.1 
632095 1:32 CBU-105 19.1 
632096 1:32 Mk.82 bombs 19.1 
632097 1:32 Mk.82 w/airbrake early 19.1 
632098 1:32 Mk.82 bomb w/MK 15 Snakey fins 1:32 19.1 
632100 1:32 Me 262 wheels 10.1 
632101 1:32 Sniper ATP 8.7 
632102 1:32 MER 13.2 
632103 1:32 TER 13.2 
632104- 1:32 AIM-4G Falcon 11.7 
632105 1:32 F4U-1 cowling w/alternate cowling flaps 14.5 
632106 1:32 Spitfire Mk.IX wheels 4-spoke 1:32 10.1 
632107 1:32 Spitfire Mk.IX wheels 5-spoke 1:32 10.1 
632108 1:32 Spitfire Mk.IX exhaust stacks – fishtail 1:32 5.8 
632109 1:32 Spitfire Mk.IX undercarriage legs-bronze 1:32 14.5 
632110 1:32 F4U-1 propeler 13.2 
632111 1:32 Spitfire Mk.IXC cockpit 32.4 
632112 1:32 GBU-11 13.2 
632114 1:32 Spitfire Mk.IX gunsight late 5.8 
632116 1:32 P-51D wheels 10.1 
632117 1:32 P-51D propeller 13.2 
632118 1:32 P-51D exhaust stacks 6.5 
632119 1:32 Fw 190A-8 cockpit 32.4 
632121 1:32 Ammo belts 12,7mm 1:32 6.5 
632122 1:32 Fw 190A-8 MG 131 mount 1:32 25.8 
632123 1:32 Fw 190A-8 engine 1:32 35.6 
632124 1:32 Fw 190A-8 propeller 1:32 13.2 
632125 1:32 Fw 190A-8 wheels 1:32 10.1 
632126 1:32 AN/AAQ-28(V) Litering pod 1:32 6.5 
632127 1:32 Spitfire Mk.IX wheels 5 spoke w/smooth tire 10.1 
632129 1:32 Spitfire Mk.IX wheels 4 spokes w/smooth t. 10.1 
632130 1:32 Spitfire Mk.IX wheels 4 spokes w/pattern 10.1 
632131 1:32 Spitfire Mk.IX cockpit 32.4 
632132 1:32 AIM-120A/B AMRAAM 13.2 
632133 1:32 AIM-120 AMRAAM 13.2 
632134 1:32 AIM-4D Falcon 11.7 
632135 1:32 P-40E exhaust stacks 1:32 5.8 
632136 1:32 F/A-18E wheels 10.1 
632137 1:32 Bf 109E engine 35.6 
632138 1:32 Bf 109E fuselage guns 32.4 
632139 1:32 P-40 exhaust stacks fishtail 6.5 
632140 1:32 BRU-57A rack 8.7 
632141 1:32 AIM-9M/L Sidewinder 10.1 
632142 1:32 AIM-7M Sparrow 13.2 
632143 1:32 P-40N wheels 10.1 
632144 1:32 Lancaster wheels 11.7 
632145 1:32 B-24 wheels (8 spoke front wheel) 11.7 
632146 1:32 AGM-65 Maverick 1:32 10.1 
632147 1:32 AIM-54A Phonix 14.5 
632148 1:32 AIM-54C Phoenix 14.5 
632149 1:32 B-24 wheels (9 spoke front wheel) 11.7 
632150 1:32 Bf 108 wheels 10.1 
632151 1:32 Bf 108 wooden propeller 5.8 
632152 1:32 AIM-9D Sidewinder 10.1 
632153 1:32 AIM-9X 10.1 
632154 1:32 HVAR rockets (8 pcs) 10.1 
632155 1:32 Bf 108 wheel spoked 10.1 
632156 1:32 GBU-39 w/BRU-61 13.2 
632157 1:32 Bf 108 oil cooler 3.6 
632158 1:32 US 1000lb bombs (2 pcs) 10.1 
632159 1:32 A-26 Invader wheels  10.1 
632160 1:32 P-40E wheels 10.1 
632161 1:32 P-40E exhaust stacks 5.8 
632162 1:32 Mk.20 Rockeye 14.5 
632163 1:32 AGM-45 Shrike 13.2 
632164 1:32 AGM-88 HARM (2 pcs) 10.1 
632165 1:32 AIM-132 Asraam 10.1 
632166 1:32 MG 15 guns 8.7 
632167 1:32 MG 81Z gun 8.7 
632168 1:32 Brimstone w/AGLM III rack 10.1 
632169 1:32 GBU-10 Paveway II 11.7 
632170 1:32 SC 50 German WW2 bombs 10.1 
632171 1:32 Tornado GR.4 wheels 10.1 
632172 1:32 GBU-49 10.1 
632173 1:32 BOZ-107 pod 10.1 
632174 1:32 ALARM missiles 10.1 
632175 1:32 Skyshadow ECM pod 10.1 
632176 1:32 CPU-123 Paveway 10.1 
632177 1:32 AIM-9J Sidewinder 10.1 
632178 1:32 TIALD 8.7 
632179 1:32 DH.82A Tiger Moth wheels 8.7 
632180 1:32 Hawk 81-A2 wheels 10.1 
632181 1:32 JP 233 dispenser Print 40.1 
632182 1:32 Yak-9T exhaust stacks Print 5.8 
632183 1:32 Bf 109G-4 Wheels 10.1 
632184 1:32 Bf 109G-2/G-4 exhaust stacks 6.5 
632185 1:32 Bf 109G-2/G-4 undercarriage legs 14.5 
634000 1:32 Instrumentne plosce 1:32 „Look“ 0.0 
634001 1:32 P-51D-5 inst.table + seatbelts „Look“ 1:32 8.7 
634002 1:32 F4U-1D Corsair „Look“ 1:32 8.7 
634003 1:32 P-51D Look 1:32 8.7 
634004 1:32 P-51D-5 Look 1:32 8.7 
634005 1:32 Spitfire Mk.IX early „Look“ 1:32 8.7 
634006 1:32 Spitfire Mk.IX late „Look“ 1:32 8.7 
634007 1:32 FW 190A-5 Look 1:32 8.7 
634008 1:32 Bf 109G-6 „Look“ 1:32 8.7 
634010 1:32 P-47D „look“ 8.7 
634012 1:32 P-40F Look 8.7 
634013 1:32 P-40E Look 8.7 
634014 1:32 Fw 190A-8 Look 8.7 
634015 1:32 Me 262A Look 8.7 
634016 1:32 P-40N look 8.7 
634017 1:32 Bf 108 lookplus 8.7 
634018 1:32 Mirage 2000C Look 1:32 8.7 
634019 1:32 A-26B Invader Looks 10.1 
634021 1:32 Bf 109E Look 8.7 
634022 1:32 P-40E Lookplus 33.3 
634023 1:32 A-26B Invader Lookplus 28.9 
634024 1:32 Tornado GR.4 „Look“ 15.7 
634025 1:32 P-51D-15 Look 8.7 
634026 1:32 P-51D-15 LookPlus 32.4 
634027 1:32 Hawk 81-A2 Look 8.7 
634028 1:32 Hawk 81-A2 Lookplus 28.9 
635001 1:35 M2 Browning 5.8 
635002 1:35 MG 34 gun 5.8 
635003 1:35 Bren machine gun Mk.1 6.5 
635006 1:35 Ammo belts 12,7 1:35 6.5 
635007 1:35 Karabiner 98 1:35 13.2 
635008 1:35 MP 40 machine gun 13.2 
635009 1:35 M16 Rifle Vietnam 13.2 
635010 1:35 AK 47 assault rifle 13.2 
635012 1:35 M16 rifle Gulf war 13.2 
635013 1:35 StG44 assault rifle 13.2 
635015 1:35 STEN Mk.II machinegun 1:35 13.2 
635016 1:35 Panzerfaust 1:35 10.1 
635017 1:35 WW2 German Clapms type 1 6.5 
635020 1:35 MG 34 gun w/ammunition belt Print 5.8 

644000 1:48 Instrumentne ploce 1:48 „Look“ 
644001 1:48 Messerschmitt Bf 109G-6 „Look“ 8.7 
644002 1:48 Fw 190A-5 „Look“ 8.7 
644003 1:48 Bf 109G-6 Look 8.7 
644004 1:48 Bf 109G-10 Look 8.7 
644005 1:48 Fw 190A-8/R2 „Look“ 1:48 8.7 
644006 1:48 Tempest Mk.V „look“ 8.7 
644007 1:48 Spitfire Mk.IX early „Look“ 1:48 8.7 
644008 1:48 Spitfire Mk.IX late „Look“ 1:48 8.7 
644010 1:48 Bf 109F Look 8.7 
644011 1:48 F6F-3 Hellcat Look 8.7 
644012 1:48 F6F-5 Hellcat look 8.7 
644013 1:48 Spitfire Mk.I Look 8.7 
644014 1:48 Fw 190D-9 Look 8.7 
644015 1:48 Fw 190A-8 Look 8.7 
644016 1:48 Fw 190A-3 Look 8.7 
644017 1:48 Spitfire Mk.VII Look 8.7 
644018 1:48 Spitfire Mk.XIV Look 8.7 
644019 1:48 Ki-61-Id Look 8.7 
644020 1:48 Typhoon Mk.Ib Look 1:48 8.7 
644021 1:48 P-51D-5 „Look“ 8.7 
644022 1:48 P-47D Razorback Look 1:48 8.7 
644023 1:48 P-47D Bubbletop Look 1:48 8.7 
644024 1:48 Bf 109E Look 1:48 8.7 
644025 1:48 P-400 Look 1:48 8.7 
644026 1:48 P-47M Look 8.7 
644027 1:48 Mig-23BN Look 8.7 
644028 1:48 P-38F look 8.7 
644029 1:48 P-38G look 8.7 
644030 1:48 P-51D-10 Look 8.7 
644031 1:48 P-51D-15 Look 8.7 
644032 1:48 F-104G early look 8.7 
644033 1:48 Mig-21bis Look 8.7 
644034 1:48 F-104J Look 8.7 
644035 1:48 F-104G late look 8.7 
644035 1:48 F-104J Look 8.7 
644036 1:48 B-17G Look 13.2 
644038 1:48 Tempest Mk.V w/early wheels LookPlus 25.8 
644039 1:48 Tempest Mk.V w/late wheels LookPlus 25.8 
644040 1:48 F-14A Tomcat 13.2 
644041 1:48 Me 262A Look 8.7 
644042 1:48 Il-2 Look 8.7 
644043 1:48 P-38F Lookplus 28.9 
644044 1:48 P-38G Lookplus 28.9 
644045 1:48 Bf 109G-10 w/early wheels,exhaust Lookplus 23.3 
644046 1:48 Bf 109G-10 w/late wheels,exhaust Lookplus 23.3 
644047 1:48 Tornado Gr.1 look 1:48 13.2 
644048 1:48 Mig-21MF Look 8.7 
644049 1:48 P-51D-5 look 1:48 8.7 
644050 1:48 Fw 190A-6 Look 1:48 8.7 
644051 1:48 P-51D-5 lookplus 1:48 27.8 
644052 1:48 P-51D-10 lookplus 1:48 27.8 
644054 1:48 Lysander Mk.III look 1:48 8.7 
644055 1:48 Mig-21MF early Look 8.7 
644056 1:48 Spitfire Mk.I Lookplus 1:48 27.8 
644057 1:48 Bf 109G-6 Lookplus 28.9 
644058 1:48 Ki-61-Id Lookplus 25.8 
644059 1:48 Mi-24V early Look 8.7 
644060 1:48 Bf 109G-6 Lookplus 15.7 
644061 1:48 P-400 Airacobra Lookplus 17.7 
644062 1:48 Tiger Moth Look 10.1 
644063 1:48 Spitfire Mk.I early Look 8.7 
644064 1:48 Spitfire Mk.I late Look 8.7 
644065 1:48 Hurricane Mk.I Look 8.7 
644066 1:48 Spitfire Mk.I early Lookplus (ins.tabel,wheels,exhausts,masks) 27.8 
644067 1:48 Spitfire Mk.I late Lookplus (ins.tabel,wheels,exhausts,masks) 27.8 
644068 1:48 Mig-19S Look 8.7 
644069 1:48 Mig-19PM Look 8.7 
644070 1:48 P-38H Ligtning Look 8.7 
644071 1:48 Il-2 (instrument table, wheels, exhausts, masks) Lookplus 25.8 
644072 1:48 Tiger Moth (Instrument table,wheels,maske) Lookplus 17.7 
644073 1:48 He 111H-6 Look 8.7 
644074 1:48 Mig-19S Lookplus (inst.panel,whells,undercarriage covers) 28.9 
644075 1:48 Mig-19PM Lookplus 28.9 
644076 1:48 Bf 110C Look 8.7 
644077 1:48 Bf 110D Look 8.7 
644078 1:48 F-14A w/early wheels Lookplus 25.8  
644079 1:48 Beaufighter Mk.IF Look 8.7 
644080 1:48 Spitfire Mk.II Look 8.7 
644081 1:48 Bf 110G-4 Look 8.7 
644082 1:48 Do 17Z Bomber Lookplus 8.7 
644083 1:48 P-38H Lookplus 27.8 
644084 1:48 F-14A w/late wheels Lookplus 25.8 
644085 1:48 Mi-24V Lookplus 28.9 
644086 1:48 Il-2 „Look“ 8.7 
644087 1:48 Mig-21MF early Lookplus 28.9 
644088 1:48 Mig-21MF Lookplus 28.9 
644089 1:48 Mig-21PF „Look“ 8.7 
644090 1:48 Mig-21PFM „Look“ 8.7 
644091 1:48 Mig-21R „Look“ 8.7 
644092 1:48 Bf 110G-4 „Lookplus“ 30.2 
644093 1:48 Il-2 „Lookplus“ 27.8 
644094 1:48 Mig-15 Look 8.7 
644095 1:48 Mig-15bis Look 8.7 
644096 1:48 Mig-21PF grey Look 8.7 
644097 1:48 Su-27UB Look 13.2 
644098 1:48 P-39Q Look 8.7 
644099 1:48 Mig-21PFM grey Look 8.7 
644100 1:48 Mustang Mk.IV Look 8.7 
644101 1:48 Mig-21PF Lookplus 28.9 
644102 1:48 Mig-21PFM Lookplus 28.9 
644103 1:48 B-17F Look 13.2 
644104 1:48 Tempest Mk.II Look 8.7 
644105 1:48 Blenheim Mk.I Look 10.1 
644106 1:48 Mig-15 Lookplus (TFace,Look,wheels,gun barrels) 24.6 
644107 1:48 Mig-15bis Lookplus (TFace,Look,wheels,gun barrels) 24.6 
644108 1:48 Mig-21PF grey lookplus 28.9 
644109 1:48 Mig-21PFM grey lookplus 28.9 
644110 1:48 P-39Q Lookplus (wheels,masks,instrument table) 22.2 
644111 1:48 Mustang Mk.IV Lookplus 27.8 
644112 1:48 N.A.F-86E Sabre F.4 Look 8.7 
644113 1:48 Spitfire Mk.V Look 8.7 
644114 1:48 B-17F Lookplus 42.3 
644115 1:48 Tempest Mk.II Lookplus (exhaust,wheels+legs,instr.table) 24.6 
644116 1:48 Sopwith Camel Look 8.7 
644117 1:48 Me 163B Look 8.7 
644118 1:48 Lancaster B Mk.I look 13.2 
644119 1:48 Z-126 Trener Look 10.1 
644120 1:48 Z-226 Trener Look 10.1 
644121 1:48 Mi-24 Hind Look 8.7 
644122 1:48 Sabre F-4 Lookplus (wheels,cockpit,masks) 22.2 
644123 1:48 Lancaster B Mk.I Lookplus 35.6 
644124 1:48 Me 163B Lookplus 21.0 
644125 1:48 Mi-24D Lookplus 28.9 
644126 1:48 Ar 234B Look 8.7 
644127 1:48 F-4B Look 13.2 
644128 1:48 A6M2 Zero Look 8.7 
644129 1:48 F/A-18E Look 8.7 
644130 1:48 Chipmunk T-10 look 10.1 
644131 1:48 Ar 234B Lookplus 24.6 
644132 1:48 Z-226 Lookplus 23.3 
644133 1:48 CH-47A Look 10.1 
644134 1:48 A6M2 Lookplus (brassin dashboard,seatbelts,masks,wheels,seat) 25.8 
644135 1:48 Chipmunk T.10 Lookplus 23.3 
644136 1:48 Tornado ECR Look 10.1 
644137 1:48 F-4B Lookplus 28.9 
644138 1:48 Su-27 Look 8.7 
644139 1:48 Z-126 Trener Lookplus 23.3 
644140 1:48 F-104S Look 8.7 
644141 1:48 F-104ASA Look 8.7 
644142 1:48 F-104ASA/M Look 8.7 
644143 1:48 Z-526AFS Akrobat 8.7 
644144 1:48 Su-27 LookPlus 30.2 
644145 1:48 F/A-18E LookPlus 35.6 
644146 1:48 CH-47A Lookplus 28.9 
644147 1:48 F-104S Lookplus 35.6 
644148 1:48 F-104 ASA Lookplus 35.6 
644149 1:48 F-104 ASA-M Lookplus 35.6 
644150 1:48 Z-526AFS Lookplus 21.0 
644151 1:48 F-14A late Look 13.2 
644152 1:48 Vampire F.3 Look 8.7 
644153 1:48 OV-10A Look 13.2 
644154 1:48 SR-71A Look 13.2 
644155 1:48 OV-10A Lookplus 28.9 
644156 1:48 F-14A late Lookplus 37.9 
644157 1:48 F-104A Look 8.7 
644158 1:48 F-104C Look 8.7 
644159 1:48 Vampire F.3 Lookplus (masks,wheels,inst.panel,seatbelts) 22.2 
644160 1:48 SR-71A Lookplus 28.9 
644161 1:48 A-1H Look 8.7 
644162 1:48 Beaufighter Mk.VI Look 8.7 
644163 1:48 Beaufighter Mk.X Look 8.7 
644165 1:48 A-1J Skyraider Look 8.6 
644166 1:48 Su-25 Look 8.7 
644167 1:48 F-104A Lookplus 22.2 
644168 1:48 F-104C Lookplus 22.2 
644169 1:48 Beaufighter MK.VI Lookplus 28.9 
644170 1:48 Beaufighter MK.X Lookplus 28.9 
644171 1:48 F4F-3 early Look 13.2 
644172 1:48 F4F-3 late Look 13.2 
644173 1:48 EA-18G Look 13.2 
644175 1:48 Su-25 Lookplus 32.4 
644176 1:48 A-1H Lookplus 22.2 
644177 1:48 A-1J Lookplus 22.2 
644179 1:48 EA-18G Lookplus 38.6 
644180 1:48 F4F-3 Late Lookplus (dash bord,steelbelts,Tface masks,exhaust,wheels) 30.2 
644181 1:48 Yak-9D Look 8.7 
644182 1:48 P-38J Lookplus (instr.panel,seatbelts, wheels, turbo exhausts,masks) 28.9 
644183 1:48 F/A-18F Lookplus (instr.panel,seats,wheels, seatelts,masks) 37.9 
644184 1:48 Tornado IDS Look 13.2 
644185 1:48 A6M3 Look 8.7 
644189 1:48 A6M3 Zero Lookplus 25.8 
644190 1:48 Tornado IDS Lookplus 28.9 

648000 1:48 Brasin – 1:48 
648001 1:48 F-16 early seat 8.7 
648004 1:48 F-16J Block 52 engine 13.2 
648008 1:48 F-16 late seat 8.7 
648009 1:48 F-4C/D/E/F/G seat 13.2 
648011 1:48 F-16 late wheels 5.8 
648012 1:48 F-4C/D/E/F/G wheels 5.8 
648013 1:48 F-16 seat 8.7 
648015 1:48 F-4S wheels 5.8 
648017 1:48 F-22A wheels 5.8 
648020 1:48 F-16CJ Block 50 engine 13.2 
648023 1:48 F-4 exhaust nozzles late 22.2 
648024 1:48 Su-7 seat 8.7 
648025 1:48 Rocket launcher UB-16 (2x) and UB-32(2x) 13.2 
648026 1:48 Mig-21 wheels 6.5 
648027 1:48 Mig-21MF/SMT exhaust nozzle 13.2 
648028 1:48 AIM-9B Sidewinder 6.5 
648029 1:48 AIM-9M/L Sidewinder 6.5 
648030 1:48 Mig-21 seat late 13.2 
648031 1:48 Mig-21 seat early 13.2 
648033 1:48 F-16 radar late 13.2 
648034 1:48 Mig-29 seat late 13.2 
648036 1:48 Mig-21MF interior late 22.2 
648037 1:48 Mig-29 wheels 6.5 
648038 1:48 Mig-21SMT interior 22.2 
648039 1:48 F-16 air brakes 5.8 
648040 1:48 RS-2US /AA-1 Alkali 10.1 
648041 1:48 Rocket launcher B-8M1 10.1 
648043 1:48 R-27R/R1/AA-10 Alamo A (4 pieces) 10.1 
648044 1:48 Mig-29 exhaust nozzles 10.1 
648046 1:48 Rocket launcher B-8M1 and loading cart 10.1 
648049 1:48 Mig-21 wheel wells 13.2 
648050 1:48 Mig-21bis interior 22.2 
648051 1:48 Mig-21bis exhaust nozzle 13.2 
648052 1:48 Bf 110 C/D main undercarriege wheels 5.8 
648053 1:48 Su-27 wheels 8.7 
648054 1:48 Su-25K wing pylons 8.7 
648055 1:48 Bf 110 E/F/G main undercarriage wheels 5.8 
648056 1:48 F6F-3/F6F-5 Hellcat R-2800-10 engine 19.1 
648057 1:48 P-61 Black Widdow wheels 6.5 
648058 1:48 Bf 109E wheels 5.8 
648061 1:48 HVAR rockets (8 pcs) 6.5 
648062 1:48 AIM-7E Sparrow 8.7 
648064 1:48 Mig-21 late airbrakes 6.5 
648067 1:48 F-4J/S Phantom II radar 14.5 
648068 1:48 PV-1 Ventura wheels 6.5 
648069 1:48 AIM-7M Sparrow 6.5 
648070-d 1:48 MG 131 for Fw 190A/F 25.8 
648071 1:48 R-73/AA-11 Archer 10.1 
648072 1:48 Il-2 Sturmovik wheels 5.8 
648073 1:48 Il-2 Sturmovik weapon set (FAB 50, RS 132) 8.7 
648075 1:48 Browning M-2 guns ( 6 pcs) 13.2 
648077-d 1:48 Browning M-2 guns (2 pcs) 6.5 
648078 1:48 B-17 wheels 8.7 
648079 1:48 Il-2 UBT gun 10.1 
648080 1:48 Mig-21 undercarriage legs /bronze/ 28.9 
648081 1:48 US 500lb bombs ( 2 pcs) 10.1 
648082 1:48 R-60/AA-8 Aphid 10.1 
648084- 1:48 AIM-120A/B AMRAAM (2 pcs) 8.7 
648085 1:48 MG 15 guns (2 pcs) 8.7 
648086 1:48 US 250lb bombs (2 pcs) 8.7 
648087 1:48 AIM-120C AMRAAM 8.7 
648089 1:48 Mig-23M/MF wheels 8.7 
648091 1:48 Mig-29 cockpit 22.2 
648092 1:48 P-51D Mustang wheels 5.8 
648093 1:48 Mk.82 bomb w/airbrake 10.1 
648094 1:48 R-27ER/AA-10 Alamo-C 10.1 
648095 1:48 GBU-24 bomb 8.7 
648097 1:48 AIM 54A Phoenix 10.1 
648098 1:48 Spitfire wheels – 5 spoke 5.8 
648099 1:48 Spitfire exhaust stacks fishtail 5.8 
648100 1:48 Spitfire Mk.IX cockpit 25.8 
648102 1:48 F6F Hellcat wheels 5.8 
648104 1:48 Mig-23M/MF exhaust nozzle 14.5 
648105- 1:48 Mig-23M/MF main wheel bay 14.5 
648106 1:48 Me 262 wheels 6.5 
648107 1:48 AIM-54C Phoenix 10.1 
648108 1:48 Spitfire drop tank 5.8 
648109 1:48 Spitfire 500 lb bomb set 6.5 
648110 1:48 Mig-21PFM wheels 6.5 
648112 1:48 Spitfire Mk.IX engine 28.9 
648113 1:48 Spitfire MK.IX gun bay 10.1 
648114 1:48 F-4B/N wheels 5.8 
648115 1:48 Spitfire wheels – 4 spoke 5.8 
648118 1:48 Spitfire wheel – 4 spoke w/pattern 5.8 
648119 1:48 Spitfire wheel – 5 spoke smooth tire 5.8 
648120 1:48 Spitfire – radio compartment 10.1 
648124 1:48 Spitfire – undercarriage legs Bronze 14.5 
648125 1:48 R-3S/AA-2 Atoll-A 10.1 
648126 1:48 OFAB-100 Soviet Bomb 8.7 
648127 1:48 OFAB-250 Soviet Bomb 8.7 
648128 1:48 Mk.82 bombs w/brake early 10.1 
648129 1:48 Mig-21R interior 22.2 
648131 1:48 MG 81 german gun (2 pcs) 6.5 
648132 1:48 B-29 wheels 8.7 
648134 1:48 Ju 88 wheels late 6.5 
648135 1:48 MG 81Z gun (2 pcs) 6.5 
648137 1:48 Mk.82 bomb w/airbrake late 10.1 
648138 1:48 F-4B exhaust nozzles 22.2 
648139 1:48 F-4B ejection seat late 13.2 
648142 1:48 F-4C wheels 5.8 
648143- 1:48 R-77/AA-12 Adder 10.1 
648146 1:48 Mig-21PF/PFM/R air brake 6.5 
648150 1:48 Fw 190 wheels late 5.8 
648151 1:48 AGM-65 Maverick 8.7 
648152 1:48 Fw 190 wheels early 5.8 
648155 1:48 GBU-12 bomb 10.1 
648156 1:48 AIM-9D Sidewinder 8.7 
648158 1:48 Bf 109G-10 wheels 5.8 
648159 1:48 Tornado IDS wheels 5.8 
648161 1:48 SC 250 German bombs 8.7 
648162 1:48 SC 500 German bombs 8.7 
648164 1:48 F4F-4 Look 13.2 
648165 1:48 AGM-45 Shrike 10.1 
648167 1:48 AGM-78 Standard ARM 8.7 
648168 1:48 Mk.20 Rockeye II 13.2 
648172- 1:48 GBU-10 Paveway II 10.1 
648173 1:48 UB-16 rocket launcher 6.5 
648174 1:48 F-104 exhaust nozzle early 13.2 
648174 1:48 F/A-18F Look 13.2 
648175 1:48 F-104 exhaust nozzle late 13.2 
648177 1:48 SSW D.III guns 6.5 
648178- 1:48 Spitfire Mk.V wheels 5.8 
648180 1:48 AGM-88 HARM (2 pcs) 10.1 
648181 1:48 F-104 undercarriage wheels late 6.5 
648182 1:48 Spitfire Mk.V exhaust stacks fishtail 5.8 
648186 1:48 Zlin Z-326 Look 10.1 
648187 1:48 F-35 Look 8.7 
648188 1:48 M 117 bomb early 13.2 
648188 1:48 Mosquito B Mk.IV Look 10.1 
648191 1:48 B-17F/G engines 51.3 
648192 1:48 PBY-5A Catalina wheels 6.5 
648193 1:48 A-6 Intruder wheels 5.8 
648194 1:48 AM-39 Exocet 10.1 
648197 1:48 AIM-9J Sidewinder 8.7 
648199 1:48 Spitfire Mk.VIII cockpit 25.8 
648200 1:48 Spitfire Mk.VIII engine 28.9 
648201 1:48 Spitfire Mk.VIII gun bays 13.2 
648202 1:48 P-39 wheels early 6.5 
648203 1:48 P-39 wheels late 6.5 
648204 1:48 Lewis Mk.II WW I gun 5.8 
648205 1:48 Lewis Mk.III WWI gun 5.8 
648206 1:48 Spitfire Mk.XVI cocpkit 25.8 
648207 1:48 IRIS-T 8.7 
648208 1:48 F-4C Phantom II ejection seat 13.2 
648210 1:48 Spitfire MK.I wheels 5.8 
648212- 1:48 Mk.84 bombs 8.7 
648214 1:48 A-4E/F wheels early 6.5 
648215 1:48 A-4E/F exhaust nozzle 10.1 
648218 1:48 Spitfire Mk.XVI wheels – 3 spoke 5.8 
648220 1:48 GBU-49 8.7 
648222 1:48 Storm Shadow 10.1 
648223 1:48 Mk.77 bombs 10.1 
648226 1:48 LAU-10/A ZUNI 10.1 
648227 1:48 MER 10.1 
648228 1:48 F-4J Phantom II cockpit 25.8 
648229 1:48 Hurricane Mk.I wheels 5.8 
648230 1:48 Hurricane Mk.I exhaust stacks 5.8 
648231 1:48 LAU-3/A rocket launcher 10.1 
648232 1:48 TER 10.1 
648233 1:48 US 108 gal paper tanks 8.7 
648234 1:48 F-104 pylons 10.1 
648235 1:48 F-86F wheels 6.5 
648236 1:48 GBU-16 10.1 
648237 1:48 AN/AAQ-28(V) Litening pod 5.8 
648239 1:48 Bf 109 G-6 radio compartment 10.1 
648240 1:48 Bf 109 G-6 cockpit 25.8 
648244 1:48 Ju 88A wheels early 6.5 
648246 1:48 Bf 109 cannon pods 8.7 
648247 1:48 Bf 109 G exhaust stacks 5.8 
648248 1:48 Mig-31 wheels 10.1 
648249 1:48 AS-34 Kormoran 1 10.1 
648250 1:48 Bf 109 G-6 engine & fuselage guns 25.8 
648252 1:48 Sniper ATP 6.5 
648253 1:48 F-4J wheels 5.8 
648254 1:48 F-4J exhaust nozzles 22.2 
648255 1:48 Bf 109 G-6 propeller 6.5 
648256 1:48 Bf 108B Taifun wooden propeller 3.6 
648257 1:48 Bf 109G-2/4 radio compartment 10.1 
648258 1:48 P-38J wheels 5.8 
648261 1:48 Bf 109G-6 wheels 5.8 
648264 1:48 SC 50 German WW2 bombs 8.7 
648265 1:48 Bf 109 external fuel tanks 8.7 
648267 1:48 Harrier GR Mk.7/8 exhaust nozzles 10.1 
648268 1:48 Mig-23BN wheels 8.7 
648270 1:48 P-40B wheels 5.8 
648271 1:48 P-40B exhaust 5.8 
648272 1:48 Meteor F.8 wheels 5.8 
648273 1:48 Sniper ATP for Harrier GR.7/GR.9 6.5 
648274 1:48 CBU-87 cluster bombs 10.1 
648275 1:48 CBU-97 cluster bombs 10.1 
648276 1:48 CBU-105 guided cluster bombs 10.1 
648278 1:48 Macchi MC.202 undercarriage bay 7.8 
648279 1:48 Bf 109F cockpit 25.8 
648280 1:48 AGM-114 Hellfire 10.1 
648281 1:48 MC.202 exhaust stacks 5.8 
648282 1:48 Bf 109F wheels 5.8 
648283 1:48 P-38J turbosupercharger & airintakes 6.5 
648284 1:48 Harrier GR Mk.7/9 set (exhausts,seats,wheels,sniper ATP) 15.7 
648285 1:48 P-38F turbochargers & air intakes 6.5 
648286 1:48 F-104 C2 ejection seat 13.2 
648288 1:48 Bf 109F propeller late 6.5 
648289 1:48 Bf 109F Propeller Early 6.5 
648290 1:48 F-14A wheels 5.8 
648291 1:48 Bf 109F Landing Flaps 8.7 
648293 1:48 F-14A ejection seats 13.2 
648294 1:48 GBU-39 w/BRU-61 10.1 
648295 1:48 Bf 109G-2 wheels 5.8 
648299 1:48 SE.5a guns 5.8 
648300 1:48 Bf 109F engine & fuselage guns 25.8 
648301 1:48 F-8 Crusader Air intake 5.8 
648302 1:48 F-8 Crusader Exhuast nozzle 13.2 
648303 1:48 AIM-9G/H Sidewinder 8.7 
648304 1:48 F-14A wheels early 5.8 
648305 1:48 Spitfire Mk.IX top cowl early 3.6 
648306 1:48 Spitfire Mk.IX top cowl late 3.6 
648307 1:48 Spitifre Mk.XVI top cowling 3.6 
648308 1:48 Bf 109F undercarriage legs bronze 14.5 
648309 1:48 Bf 109G undercarriage legs bronze 14.5 
648310 1:48 Bf 109G control surfaces 8.7 
648311 1:48 F-14A Tomcat exhaust nozzles 22.2 
648312 1:48 F-14A cockpit 28.9 
648313 1:48 F-4J wheels 5.8 
648314 1:48 F-4J exhaust nozzles 22.2 
648315 1:48 Typhoon Mk.I exhaust stacks w/fairing 5.8 
648316 1:48 Ki-61-Id exhaust stacks 5.8 
648317 1:48 Ki-61-Id wheels 5.8 
648318 1:48 SE.5a propeller four blade 5.8 
648320 1:48 SE.5a radiator -Hispano Suiza for 2 blade prop. 5.8 
648321 1:48 Ki-61-Id gun barrels 3.6 
648322 1:48 Matra R-550 Magic 8.7 
648323 1:48 Matra R-550 Magic 2 8.7 
648324 1:48 Matra R-530 8.7 
648326 1:48 Su-34 wheels 10.1 
648327 1:48 German Submarine 8,8cm gun 1:48 15.7 
648328 1:48 Heinkel He 219 wheels 8.7 
648331 1:48 Luftwaffe FuG 16 antennas 3.6 
648332 1:48 Bf 109F/G pitot tube 3.6 
648335 1:48 P-51D wheels 5.8 
648336 1:48 P-51D exhaust stacks 5.8 
648337 1:48 P-51D bazzoka rocket launchers 8.7 
648338 1:48 Spitfire Mk.VII top cowling 1:48 3.6 
648339 1:48 Brimstone w/AGML III racks 10.1 
648341 1:48 Ammo belts 12,7mm 1:48 6.5 
648343 1:48 Walrus Mk.I wheels 6.5 
648344 1:48 P-51D exhaust stacks w/fairing 5.8 
648348 1:48 GBU-43/B MOAB 51.3 
648349 1:48 P-51D 75 gal fuel tanks 6.5 
648350 1:48 P-51D 108 gal paper fuel tanks 8.7 
648351 1:48 Fw 190A-4 cockpit 25.8 
648352 1:48 Fw 190A-4 engine 25.8 
648354- 1:48 Fw 190A-4 fuselage guns 25.8 
648356 1:48 Fw 190A-4 wingroot guns 10.1 
648358 1:48 BRU-57A racks 7.8 
648359 1:48 P-51D rear view mirrors 3.6 
648360 1:48 P-51D Hamilton Standard uncoffed propeller 6.5 
648361 1:48 P-51D gun sights 3.6 
648363 1:48 AN/ANG-131 (shallow) ECM pod  8.7 
648365 1:48 Bf 109F radio compartment 10.1 
648366 1:48 Fw 190A propeller  6.5 
648368 1:48 British 500lb bombs 8.7 
648370 1:48 Typhoon Mk.Ib fuel tanks 10.1 
648371 1:48 Fw 190A control surfaces 8.7 
648372 1:48 Pe-2 UBT gun 10.1 
648373 1:48 Fw 190A pilot tub early 3.6 
648374 1:48 L-29 wheels 5.8 
648375 1:48 L-29 ejection seats 13.2 
648378 1:48 FAB 500 WW2 soviet bombs 10.1 
648380 1:48 Spitfire Mk.VIII/Mk.IX cockpit door 3.6 
648381 1:48 Fw 190A exhaust stacks 5.8 
648382 1:48 AN/ALQ-131 (deep) ECM pod 8.7 
648383 1:48 AGM-154A/C Block I air to ground guided missile 10.1 
648384 1:48 AGM-154C Block II 10.1 
648385 1:48 GBU-38 Non Thermally Protected 10.1 
648386 1:48 GBU-38 Thermally Protected 10.1 
648387 1:48 F-8 Crusader wheels 6.5 
648389 1:48 BLU-27×4 finned napalm bombs Vietnam era 11.7 
648391 1:48 Fw 190A-5 engine 25.8 
648392- 1:48 Fw 190A-5 fuselage guns 25.8 
648393 1:48 British rocket Projectiles RP-3 60lb F (4 pcs) 6.5 
648394 1:48 British rocket Projectiles RP-3 60lb S.A.P. (8 pcs) 6.5 
648395 1:48 GBU-32 JDAM Non Thermally Protected 13.2 
648396 1:48 GBU-32 Thermally Protected 13.2 
648397 1:48 P-51D ammo bays 13.2 
648398 1:48 Fw 190A-5/U12 gun pod 1:48 11.7 
648399 1:48 WGr.21 for Bf 109G-6 10.1 
648400 1:48 Bf 109G-6 wheels 5.8 
648401 1:48 Bf 109G-6 gun barrels 3.6 
648402 1:48 Bf 109G-6 exhuast stacks 5.8 
648404 1:48 Bf 109G-6 radio compartment 11.7 
648408 1:48 Fw 190A-5 engine & fuselage guns 40.1 
648410 1:48 Bf 109G tropical filter 3.6 
648413 1:48 Typhoon Mk.Ib wheels late 6.5 
648414 1:48 Typhoon Mk.Ib exhaust stacks 5.8 
648415 1:48 BL755 cluster bombs (4 pcs) 10.1 
648416 1:48 Tempest Mk.V cockpit 28.9 
648417 1:48 Tempest Mk.V engine 32.4 
648418 1:48 Tempest Mk.V exhaust stacks 4.3 
648419 1:48 Tempest Mk.V gun bay 15.7 
648420 1:48 Tempest Mk.V  wheels early 6.5 
648421 1:48 Tempest Mk.V  wheels late 6.5 
648425 1:48 AGM-158 JASSM Cruise Missiles 13.2 
648427 1:48 Bf 109G-6/U4 engine 28.9 
648428 1:48 Mig-23ML main wheel bay 15.7 
648429 1:48 Mig-23MF/ML ejection seat 13.2 
648430 1:48 Mig-23ML exhaust nozzle 14.5 
648432 1:48 R-23R missiles for Mig-23 8.7 
648434 1:48 Mig-23MF engine air intales 10.1 
648435 1:48 AIM-9X Sidewinder 10.1 
648436 1:48 Fw 190A-5 undercarriage leg bronze 14.5 
648437 1:48 Fw 190A-8/R2 undercarriage leg bronze 14.5 
648438 1:48 Mig-23ML engine air intales 10.1 
648440 1:48 Fw 190A-8/R-2 engine & fuselage guns 40.1 
648441 1:48 Bf 109G-10 engine 28.9 
648442 1:48 M2 Brownings w/handles 10.1 
648444 1:48 SUU-30B/B claster bombs 10.1 
648447 1:48 B43-0 nuclear weapon w/SC43-4/-7 tail ansembly 10.1 
648448 1:48 B43-1 nuclear weapon w/SC43-4/-7 tail ansembly 10.1 
648450 1:48 RP-3 60lb rockets for Tempest Mk.V (8 pcs) 8.7 
648451 1:48 AN/AVG 10 PAVE Knife 8.7 
648452 1:48 PAVE Way I Mk.83 Slow Speed LGB Non-Thermally Protected 10.1 
648453 1:48 PAVE Way I Mk.83 Hi Speed LGB Non Thermanlly Protected 10.1 
648454 1:48 SUU-30H/B US cluster bomb 10.1 
648455 1:48 Spitfire Mk.I wheels  6.5 
648456 1:48 Spitfire Mk.I exhaust stacks 5.8 
648457 1:48 F-14D Tomcat cockpit 28.9 
648458 1:48 M2 Browning w/handles for aircraft 10.1 
648459 1:48 B43-0 Nuclear Weapon w/SC43-3/-6 tail assebly 1:48 10.1 
648460 1:48 B43-1 Nuclear Weapon w/SC43-3/-6 tail assebly 1:48 10.1 
648461 1:48 Fw 190A-8 engine 1:48 25.8 
648462 1:48 Fw 190A-8 fuselage guns 1:48 25.8 
648463 1:48 Fw 190A-8 cockpit 1:48 25.8 
648464 1:48 Fw 190A-8 engine & fuselage guns 40.1 
648465 1:48 Bf 109G-10/U4 engine 28.9 
648466 1:48 Spitfire Mk.I cockpit 26.8 
648467 1:48 Shafrir missiles 10.1 
648468 1:48 Spitfire Mk.XIV wheels 4 spoke 6.5 
648469 1:48 Spitfire Mk.XIV wheels 3 spoke 6.5 
648470 1:48 Spitfire Mk.XIV exhaust stacks 5.8 
648471 1:48 F-14D ejection seat 13.2 
648472 1:48 Bf 109E cockpit & radio compartment 25.8 
648473 1:48 Bf 109E fuselage guns 25.8 
648474 1:48 Bf 109E engine 25.8 
648475 1:48 PAVE Way I Mk.83 Hi Speed LGB Thermally Protected 10.1 
648476 1:48 Fw 190A-8 undercarriage legs Bronze 1:48 14.5 
648477 1:48 SUU-7 dispenser 10.1 
648478 1:48 SUU-7 dispencer w/extanted tubes 10.1 
648479 1:48 Bf 109G-10/U4 cockpit 25.8 
648482 1:48 Fw 190A-8/R2 engine 25.8 
648484 1:48 P-47D wheels 6.5 
648485 1:48 P-51D exhaust stacks 5.8 
648486 1:48 P-51D exhaust stacks w/fairings 5.8 
648487 1:48 P-51D Hamilton Standard propeller 6.5 
648488 1:48 P-51D Hamilton Standard propeller- uncuffed 6.5 
648489 1:48 P-51D-5 cockpit 25.8 
648490 1:48 Mig-21 F.O.D. 6.5 
648491 1:48 AN/ALQ-71(V)-2 ECM 1:48 8.7 
648492- 1:48 AN/ALQ-71(V)-3 ECM pod  7.8 
648493 1:48 AN/ALQ-87 ECM 1:48 8.7 
648494 1:48 P-51D wheels diamond treated 6.5 
648495 1:48 P-51D undercarriage 6 legs bronze 15.7 
648496 1:48 PB-250 bombs 8.7 
648497 1:48 UPK-23-250 gun pod 8.7 
648498 1:48 F/A-18E ECS pipes late 4.3 
648499- 1:48 Tempest Mk.V intake ring 3.6 
648500 1:48 Tempest Mk.V dust filter w/eyelid 3.6 
648501 1:48 Kh-23M missiles 10.1 
648503 1:48 P-51D wheels oval tread 6.5 
648504 1:48 P-51D wheels cross tread 6.5 
648505 1:48 P-51D wheels block tread 6.5 
648506 1:48 AIM-132 ASRAAM 10.1 
648507 1:48 SUU-14 dispenser 10.1 
648508 1:48 P-400 exhaust stacks 5.8 
648509 1:48 Mig-23BN exhaust nozzle 14.5 
648510 1:48 Mig-23BN engine air intake 10.1 
648511 1:48 P-51D wheels diamond tread 2 1:48 6.5 
648512 1:48 P-51D wheels rhomboid tread 1:48 6.5 
648514 1:48 P-51D wheels grooved 1:48 6.5 
648515 1:48 P-38F/G wheels 7.8 
648516 1:48 P-38F/G gun barrels 5.8 
648517 1:48 P-51D gun bay 13.2 
648519 1:48 P-38F/G Lightning supercharger 6.5 
648520 1:48 P-38F/G Lightning landing flaps 15.7 
648521 1:48 P-38F/G undercarriage legs bronze 19.1 
648522 1:48 P-51D cockpit 1:48 25.8 
648524 1:48 F-104 late wheels 6.5 
648525 1:48 F-104 C2 ejection seat 13.2 
648526 1:48 F-104 MB.7 ejection seat 13.2 
648527 1:48 BOZ-EC pod 7.8 
648528 1:48 Sky Shadow ECM pod (for Tornado) 8.7 
648529 1:48 B-17 wheels 8.7 
648530 1:48 F-14D wheels 6.5 
648531 1:48 P-51D 110 gal fuel tank 10.1 
648532 1:48 P-51D 165 gal fuel tank 13.2 
648533 1:48 P-38F/G nose gun bay 25.8 
648534 1:48 A-26 Invader wheels 8.7 
648535 1:48 F-14D Tomcat ejection seats 13.2 
648536 1:48 B-17G superchargers 8.7 
648538 1:48 B-17G engines 35.6 
648539 1:48 B-17G guns 1:48 15.7 
648540 1:48 B-17G undercarriage legs bronze 1:48 32.4 
648541 1:48 Mirage IIIC wheels 6.5 
648542 1:48 He 111 early wheels 6.5 
648543 1:48 He 111 late wheels 6.5 
648544 1:48 P-38F cockpit 25.8 
648545 1:48 P-38G cockpit 25.8 
648546 1:48 PHIMAT chaff dispenser 6.5 
648547 1:48 TIALD pod 7.8 
648548 1:48 AN/AAQ-13 LANTIRN pod 8.7 
648549 1:48 Alarm missiles 9.2 
648550 1:48 CPU-123 Paveway II 10.1 
648551 1:48 JP233 dispenser pod 1:48 15.7 
648552 1:48 AN/ALQ-99 pod Low Band 1:48 10.1 
648553 1:48 AN/AAQ-14 LANTRIN pod 1:48 8.7 
648554 1:48 AN/ALQ-99 pod High Band 10.1 
648555 1:48 P-51D engine 28.9 
648556 1:48 Tiger Month wheels 1:48 5.8 
648557 1:48 SUU-30A/B early 10.1 
648558 1:48 SUU-30B early 10.1 
648559 1:48 B-61 nuclear bombs 10.1 
648560 1:48 F-14D exhaust nozzles 22.2 
648561 1:48 SUU-25 flare dispenser 6.5 
648562 1:48 GBU-31(V)1B JDAM 10.1 
648563 1:48 GBU-31(V)3B JDAM 10.1 
648564 1:48 GBU-54 Non-Thermally Protected 10.1 
648565 1:48 US 1000Lb bombs 6.5 
648566 1:48 SUU-20 dispenser/BDU-33 & Mk.76 bombs 10.1 
648567 1:48 BDU-33 & Mk.76 practice bombs 6.5 
648568 1:48 US torpedo Mk.13 10.1 
648569 1:48 Japanese Torpedo Type 91 10.1 
648570 1:48 P-51D gun sights 3.6 
648571 1:48 P-51D 75 gal drop tanks 6.5 
648572 1:48 P-51D 108 gal drop tanks 8.7 
648573 1:48 Mi-24V wheels 5.8 
648574 1:48 UB-32A-24 rocket launcher (4x) 10.1 
648575 1:48 B8V20 rocket launcher 10.1 
648576 1:48 9K114 Sturm missiles 10.1 
648577 1:48 P-51D Bazzoka rocket launcher 8.7 
648578 1:48 Spitfire Mk.I cockpit 25.8 
648579 1:48 Spitfire Mk.I wheels 6.5 
648580 1:48 Spitfire Mk.I exhaust stacks 5.8 
648581 1:48 Spitfire Mk.I gun bays 13.2 
648582 1:48 Spitfire Mk.I engine 28.9 
648583 1:48 Bf 109G Eberspacher acoustic pipes 5.8 
648584 1:48 Lysander Twin Browning machine gun 5.8 
648585 1:48 Mi-24V/VP pitot tub 5.8 
648586 1:48 Mi-24V/VP GSh-23 canon 10.1 
648587 1:48 Mi-24V/VP machine gun 10.1 
648588 1:48 Il-2m3 exhaust stacks 5.8 
648589 1:48 Spitfire Mk.I undercarriage legs Bronze 14.5 
648590 1:48 Mig-19 exhaust nozzles 13.2 
648592 1:48 Mig-19 wheels 6.5 
648593 1:48 RS-2U air-to-air missiles 10.1 
648594 1:48 Mig-19 wheel doors 6.5 
648595 1:48 P-38H cockpit 25.8 
648596 1:48 P-38H gun barrels 5.8 
648597 1:48 Mig-19 ejection seat 13.2 
648598 1:48 GBU-54 Thermally Protected 10.1 
648599 1:48 F-6D cameras 13.2 
648600 1:48 F-6D Mustang cockpit 25.8 
648601 1:48 AN/ALE-41 Chaff dispenser 10.1 
648602 1:48 Bf 110C/D radio equipment 6.5 
648603 1:48 Bf 110G wheels 6.5 
648604 1:48 Bf 110G-4 gun muzzles 6.5 
648605 1:48 Bf 110G-4 schrage music 8.7 
648606 1:48 Bf 110G-4 exhaust stacks 6.5 
648607 1:48 Bf 110C/D/E exhaust stacks 6.5 
648608 1:48 Do 17Z wheels 6.5 
648609 1:48 Do 17Z bomber guns 10.1 
648610 1:48 Spitfire Mk.IIa gun bays 13.2 
648611 1:48 Spitfire Mk.II gun bays 13.2 
648612 1:48 SUU-23 gun pod 11.7 
648613 1:48 Spitfire Mk.II engine 28.9 
648614 1:48 AGM-62 Walleye I Mk.I 8.7 
648615 1:48 AGM-62 Walleye I ER/ERDL 8.7 
648616 1:48 AGM-62 Walleye II 9.7 
648617 1:48 Il-2 wheels 6.5 
648618 1:48 Il-2 exhaust stacks 5.8 
648619 1:48 AGM-84D Harpoon 10.1 
648620 1:48 GBU-53B w/BRU-61 10.1 
648621 1:48 Spitfire MK.II cockpit 25.8 
648622 1:48 Mig-15 wheels 6.5 
648623 1:48 ADM-160 MALD 8.7 
648624 1:48 GBU-15(V)1/B 10.1 
648625 1:48 Mk.44 torpedo 6.5 
648626 1:48 Mig-15 gun barrels 3.6 
648627 1:48 Lufttorpedo F5b 10.1 
648628 1:48 Mig-15 ejection seat 13.2 
648629 1:48 Mig-15bis gun barrels 3.6 
648630 1:48 Lufttorpedo F5W 10.1 
648631 1:48 B-17F engines 35.6 
648632 1:48 B-17F undercarraige bronze 32.4 
648633 1:48 Fw 190F-8 cockpit 25.8 
648634 1:48 B-17F guns 15.7 
648635 1:48 B-17F supercharges 8.7 
648636 1:48 Tempest Mk.II wheels 6.5 
648637 1:48 Tempest Mk.II undercarraige bronze 15.7 
648638 1:48 Tempest Mk.II gun bays 15.7 
648639 1:48 Tempest Mk.II cockpit 28.9 
648640 1:48 Spitifre Mk.V engine 28.9 
648641 1:48 RP-3 60lb rockets for Tempest Mk.II 8.7 
648642 1:48 B-17 wheels corss tread 8.7 
648643 1:48 B-17 wheels block tread 8.7 
648644 1:48 B-17 wheels oval tread 8.7 
648645 1:48 B-17 wheels rhomboid tread 8.7 
648646 1:48 GBU-15(V)21/B 10.1 
648647 1:48 P-51D wheels block tread 2 6.5 
648648 1:48 Fw 190F-8 engine 25.8 
648649 1:48 Fw 190F-8 fuselage guns 25.8 
648650 1:48 Fw 190F-8 engine & fuselage guns 40.1 
648651 1:48 AGM-142 Popeye I 10.1 
648652 1:48 AGM-142 Popeye Have Nap 10.1 
648653 1:48 Su-27 wheels 6.5 
648654 1:48 Tempest Mk.II exhaust 3.6 
648655 1:48 Su-27UB ejection seats 13.2 
648656 1:48 Lancaster B Mk.I wheels 8.7 
648657 1:48 Sopwith Camel wheels Type 1 5.8 
648658 1:48 Sopwith Camel wheels Type 2 5.8 
648659 1:48 Sopwith Camel seat 4.3 
648660 1:48 Sopwith Camel Vickers Mk.I gun 4.3 
648661 1:48 Sopwith Camel US Colt Vickers Gun 4.3 
648662 1:48 Sopwith Camel 20lb bomb carrier 6.5 
648663 1:48 Spitfire Mk.V cockpit 25.8 
648664 1:48 Spitfire Mk.V wheels 6.5 
648665 1:48 Spitfire Mk.Vb gun bays 13.2 
648666 1:48 Spitfire Mk.Vc gun bays 13.2 
648667 1:48 Spitfire Mk.V three stacks exhaust rounded 5.8 
648669 1:48 Spitfire Mk.V six-stacks exhaust fishtail 5.8 
648670 1:48 Spitfire Mk.Va/b undercarriage legs Bronze  14.5 
648671 1:48 Spitfire Mk.Vc undercarriage legs Bronze  14.5 
648672 1:48 Bf 109G-10 propeller 6.5 
648673 1:48 Sabre F.4 wheels 6.5  
648674 1:48 Sopwith Camel Rotherham air pumps 5.8 
648675 1:48 Falanga 9M17P missiles 10.1 
648676 1:48 Sopwith Camel Clerget engine 13.2 
648677 1:48 Sopwith Camel Bentley engine 13.2 
648678 1:48 Sopwith Camel Le Rhone engine 13.2 
648679 1:48 Z-126/226 Trener wheels 5.8 
648680 1:48 Z-126 Trener cockpit Print 25.8 
648681 1:48 Z-126 Trener Walter Minor 4 engine „print“ 25.8 
648682 1:48 F-4B wheels 6.5 
648683 1:48 F6F exhaust stacks 3.6 
648684 1:48 Me 163B wheels 6.5 
648685 1:48 Mi-24D wheels 5.8 
648686 1:48 Tempest Mk.II landing flaps (print) 13.2 
648687 1:48 Ar 234B wheels 6.5 
648688 1:48 Fw 190D exhaust stacks 5.8 
648689 1:48 B5N2 800kg bomb 5.8 
648690 1:48 F-4B exhaust nozzles (print) 22.2 
648691 1:48 US Mk.17 depth carges (print) 6.5 
648692 1:48 A6M2 Zero Model 21 cockpit Print 25.8 
648693 1:48 A6M2 wheels 6.5 
648694 1:48 A6M2 engine Print 25.8 
648695 1:48 A6M2 undercarriage legs bronze 19.1 
648697 1:48 Mi-24D cockpit 28.9 
648698 1:48 A6M2 seat Print 4.3 
648699 1:48 Chipmunk T-10 wheels 5.8 
648700 1:48 F-4B undercarriage legs Bornze 37.9 
648701 1:48 F/A-18E wheels 6.5 
648702 1:48 F/A-18E ejection seats 13.2 
648704 1:48 F-4B fin caps Print 5.8 
648705 1:48 Z-226 Trener cocpkit Print 25.8 
648707 1:48 F-16 wheels early 5.8 
648708 1:48 F-16 late early 5.8 
648709 1:48 F-4B ejection seta early Print 13.2 
648710 1:48 F-4B ejection seta late Print 13.2 
648711 1:48 Sopwith Camel Gnome engine Print 13.2 
648712 1:48 SBD-5 Dauntless twin machine gun 5.8 
648713 1:48 SBD-5 Dauntless wheels 6.5 
648714 1:48 Panzerschreck 1 for Fw 190F print 10.1 
648715 1:48 TSPJ pod Print 8.7 
648716 1:48 F-4B Phantom II refueling probe Print 6.5 
648717 1:48 SU-27 ejection seat 10.1 
648718 1:48 A-4 ejection seat 10.1 
648719 1:48 Pe-2 wheels 6.5 
648720 1:48 Bf 109G-4 wheels 6.5 
648721 1:48 A6M2 Model 11 Zero exhaust earlx Print 5.8 
648722 1:48 A6M2 exhaust Print 5.8 
648723 1:48 A6M2 cannon barrels & cockpit gun Print 6.5 
648724 1:48 A6M2 landing flaps Print 13.2 
648726 1:48 Sopwith Camel Comic Lewsi gun Print 10.1 
648728 1:48 F-4B Phantom II airbrake Print 6.5 
648729 1:48 Z-326/526 wheels 5.8 
648730 1:48 Mi-24D conversion set Print 13.2 
648731 1:48 A6M2 Zero Model 21 folding wing Print 6.5 
648732 1:48 F-4B Phantom II tail hoke Print 6.5 
648733 1:48 Z-526AFS cockpit Print 25.8 
648734 1:48 CH-47A wheels 8.7 
648735 1:48 OV-10 wheels 6.5  
648736 1:48 Fw 190A Landing flaps „print“ 13.2 
648737 1:48 Fw 190D landing flaps Print 13.2 
648738 1:48 Spitfire Mk.V Landing flaps „print“ 13.2 
648739 1:48 F-14A late cockpit 28.9 
648740 1:48 SR-71A wheels 8.7 
648741 1:48 Vampire F.3 wheels 6.5 
648742 1:48 P-51D wheelbay Print 17.7 
648743 1:48 F-15A/B wheels 6.5 
648744 1:48 F-15C/D/N wheels 6.5 
648745 1:48 F-15E/I/K wheels 6.5 
648746 1:48 Mosquito wheels 8.7 
648747 1:48 F6F Hellcat undercarriage Bronze 19.1 
648748 1:48 Spitfire Mk.IX landing flaps Print 13.2 
648749 1:48 MICA RF Print 10.1 
648750 1:48 MICA IR Print 10.1 
648751 1:48 M2 Browning w/handles for aircraft Print 10.1 
648752 1:48 Z-126/226 landing gear skis Print 8.8 
648753 1:48 Vampire F.3 seat Print 4.3 
648754 1:48 Beaufighter Mk.VI wheels 8.7 
648755 1:48 Beaufighter Mk.X wheels 8.7 
648756 1:48 F4F 42 gal vetral drop tank Print 8.7 
648757 1:48 Fw 190D landing Wooden Flaps Print  13.2 
648758 1:48 SR-71A ejection Seats Print 13.2 
648759 1:48 Spitfire Mk.VIII landing flaps Print 13.2 
648760 1:48 A-1H wheels 6.5 
648761 1:48 A-1J Skyraider wheels 6.5 
648762 1:48 Beaufighter exhaust Print 5.8 
648763 1:48 A6M2 engine complet Print 28.9 
648764 1:48 SU-25K ejection seat Print 10.1 
648765 1:48 F4F-3 cockpit w/telescopic gun sight Print 27.8 
648766 1:48 F4F-3 exhaust Print 4.3 
648767 1:48 F4F-3 wheels early 6.5 
648768 1:48 F4F-3 wheels late 6.5 
648769 1:48 F4F-3 gun barrels 3.6 
648770 1:48 F4F-3 life raft Print 10.1 
648771 1:48 A6M2 gun bay Print 13.2 
648773 1:48 A6M2 tail wheel Print 8.7 
648773 1:48 EA-18G ejections seats 13.2 
648774 1:48 EA-18G wheels 6.5 
648775 1:48 F/A-18F ejection seats 13.2 
648776 1:48 F/A-18F wheels 6.5 
648777 1:48 F4F-3 cockpit w/reflector gunsight Print 27.9 
648778 1:48 Luftwaffe rudder pedals Print 4.3 
648779 1:48 F4F undercarriage Bronze 27.8 
648780 1:48 Su-25 wheels 6.5 
648781 1:48 F4F seat early Print 4.3 
648782 1:48 P-38J wheels Print 7.8 
648783 1:48 P-38J landing flaps Print 15.7 
648786 1:48 A6M3 seat Print 4.3 
648787 1:48 A6M3 tailwheel Print 8.7 
648788 1:48 A6M3 cannon barrels & cockpit guns Print 6.5 
648789 1:48 P-38J gun barrels Print 6.5 
648790 1:48 P-38J nose gun bay  Print 25.8 
648791 1:48 P-38J supercharger  Print 7.8 
648793 1:48 F4F-3 gun bay Print 13.2 
648794 1:48 F4F-3 landing flaps Print 13.2 
648795 1:48 F4F-3 wheel bay Print 17.7 
648796 1:48 WW2 USAAF oxygen cylinder A-4 3.6 
648797 1:48 F/A-18E,F exhaust nozzle Print 25.8 
648798 1:48 F6F whell bay Print 19.1 
648799 1:48 A6M3 wheels 6.5 
648800 1:48 A6M3 cockpit Print 25.8 
648801 1:48 A6M3 exhuasts Print 3.6 
648802 1:48 A6M3 type 32 Landing Flaps Print 13.2 
648803 1:48 F4F-4 cockpit Print 27.8 
648804 1:48 EA-18G exhaust nozzles Print 25.8 
648805 1:48 Yak-9D exhaust stacks Print 5.8 
648806 1:48 A6M3 type 22 Folding Wings Tips Print 6.5 
648807 1:48 A6M3 type 22 Landing Flaps Print 13.2 
648808 1:48 A6M3 wheels with smoth tire 6.5 
648811 1:48 P-38J seat 4.3 
648812 1:48 P-38J cockpit Print 27.8 
648814 1:48 Buccaneer S.2C/D wheels 6.5 

653001 1:350 USN searchlights Print 5.8 
653002 1:350 M2 Browning water cooled Print 5.8 
653003 1:350 USN electric ship winches Print 5.8 
653004 1:350 USN Search lights 24 inch Print 5.8 
653005 1:350 Carley float for 10 people – type 1 Print 5.8 
653006 1:350 Carley float for 10 people – type 2 Print 5.8 
653007 1:350 USS searchlights 12 inch Print 5.8 
653008 1:350 5″/25 caliber gun Mk.10 Print 10.1 
653009 1:350 OS2U-3 Kingfisher Print 8.7 
653010 1:350 WW2 USN battleship bollards print 19.1 
653011 1:350 Carley float for 25 people type 1 5.8 
653012 1:350 Carley float for 25 people type 2 5.8 
653013 1:350 Carley float for 40 people – type 1 5.8 
653014 1:350 Carley float for 40 people – type 2 5.8 

672005 1:72 DB 601A/N for Bf 110 C/D/E 13.2 
672006 1:72 Bf 110C/D wheels 5.8 
672007 1:72 Mig-15 wheels 5.8 
672008 1:72 Mig-15 ejection seat 5.8 
672011 1:72 B-17G wheels 6.5 
672013 1:72 Bf 110G wheels 5.8 
672014 1:72 Ju 88 wheels late 6.5 
672016 1:72 P-51 wheels 5.8 
672017 1:72 MG 15 guns 5.8 
672019 1:72 MG 81Z gun (2 pcs) 5.8 
672020 1:72 Mig-15bis airbrakes 5.8 
672021 1:72 Mig-15 airbrakes 5.8 
672023 1:72 OFAB-100 bomb 6.5 
672024 1:72 Mig-15bis cockpit 13.2 
672025 1:72 Lancaster wheels 5.8 
672026 1:72 Il-2 wheels 5.8 
672030 1:72 AIM-7E Sparrow (4 pcs) 8.7 
672031 1:72 AIM-54C Phoenix 8.7 
672032 1:72 AIM-7M Sparrow 8.7 
672033 1:72 British WW2 bombs (500lb,1000lb) 8.7 
672035- 1:72 US Mk.44 torpedo 6.5 
672036 1:72 AIM-9B Sidewinder 6.5 
672037 1:72 AIM-9M/L Sidewinder 6.5 
672038 1:72 US 250lb bombs (6 pcs) 8.7 
672039 1:72 US 500lb bombs (6 pcs) 8.7 
672040 1:72 F-16CJ Block 50 wheels 5.8 
672043 1:72 AIM-9D Sidewinder 6.5 
672045 1:72 F-16CJ Block 50 exhaust nozzle 8.7 
672046 1:72 C-47 wheels 5.8 
672047 1:72 F-16CJ Block 50 ejection seat 5.8 
672049 1:72 Mk.20 Rockeye II 8.7 
672052 1:72 GBU-10 Paveway II 6.5 
672053- 1:72 German Submarine U-Boat 10,5cm gun for Type IXC 13.2 
672054 1:72 AGM-88 HARM (2 pcs) 8.7 
672055 1:72 AIM-4D Falcon 6.5 
672058 1:72 M117 bombs late 8.7 
672060 1:72 AM-39 Exocet 6.5 
672061 1:72 AS-34 Kormoran 6.5 
672062 1:72 MG 81 machine gun (2 pcs) 6.5 
672064 1:72 AIM-9J Sidewinder 6.5 
672065 1:72 F-16 airbrakes 5.8 
672067- 1:72 JAS-39 wheels 5.8 
672072 1:72 GBU-49 6.5 
672076 1:72 Beaufighter Mk.X exhaust 3.6 
672077 1:72 Mig-15 UTI cockpit 13.2 
672078 1:72 F-4J Phantom II wheels 5.8 
672079 1:72 F-4J exhaust nozzles 10.1 
672080 1:72 Fw 190A wheels late 5.8 
672081 1:72 Fw 190A-8 cockpit 13.2 
672082 1:72 Fw 190A-8 engine 13.2 
672085 1:72 Fw 190A exhaust stacks 3.6 
672086 1:72 Fw 190A-8 propeler 5.8 
672087 1:72 Mk.82 bombs 8.7 
672088 1:72 Fw 190A-8 engine & fuselage guns 19.1 
672089 1:72 F-4 armament (AIM-9B-4x,AIM-7E-4x,Mk.82 bombs-18) 19.1 
672090 1:72 Mig-29 wheels 5.8 
672091 1:72 Mig-29A exhaust nozzles 10.1 
672092 1:72 M2 Browning guns 7.8 
672093 1:72 Mig-29A ejection seat 5.8 
672094 1:72 Mig-29A 9-12 cockpit 10.1 
672097 1:72 Shackleton MR.2 wheels 6.5 
672101 1:72 Fw 190A-5 fuselage guns 13.2 
672102 1:72 UB-16 rocket pods (4 pcs) 6.5 
672103 1:72 UB-32 rocket pods 6.5 
672105 1:72 RS-2US /AA-1 Alkali 6.5 
672110 1:72 Spitfire exhaust stacks – fishtail 5.8 
672111 1:72 Spitfire exhaust stacks – w/pattern 5.8 
672112 1:72 Spitfire Mk.IX  cockpit 13.2 
672113 1:72 SC 250 german WWII bombs 5.8 
672114 1:72 AN/AAQ-28(V) litening pod 5.8 
672115 1:72 SC 50 German WW2 bombs 5.8 
672116 1:72 Mk.77 bombs 6.5 
672118 1:72 Fw 190A-5 engine & fuselage guns 19.1 
672119 1:72 MER 6.5 
672120 1:72 TER 6.5 
672121 1:72 Spitfire 500lb bomb set 5.8 
672123 1:72 Spitfire MK.IX top cowl.early 3.6 
672124 1:72 Spitfire MK.IX top cowl.late 3.6 
672125 1:72 Spitfire Mk.XVI topcowling 3.6 
672126 1:72 Spitfire Mk.IX engine 19.1 
672127 1:72 CBU-87 8.7 
672129 1:72 CBU-105 8.7 
672130 1:72 B-17G wheels 6.5 
672131 1:72 B-17G engines 35.6 
672132 1:72 B-17 guns 10.1 
672133 1:72 B-17G turbochargers 6.5 
672134 1:72 Spitfire Mk.IX legs „bronze“ 10.1 
672139 1:72 Fokker Dr.I engine 6.5 
672140 1:72 UB-32A-24 rocket pod for Mi-24 (4 pcs) 6.5 
672141 1:72 Sniper ATP 5.8 
672142 1:72 Spitfire Mk.XVI wheels- 3 spoke 5.8 
672143 1:72 Victor B.2 wheels 8.7 
672144 1:72 Falanga 9M17P missiles – AT-2C „Swatter C“ (for Mi-24) 6.5 
672145 1:72 FFAR rockets (8 pcs) 5.8 
672147 1:72 Spifire Mk.VIII wheels – 4 spoken w/pattern tire 5.8 
672148 1:72 AGM-114 Hellfire 6.5 
672149 1:72 R-60/AA-8 Aphid 6.5 
672150 1:72 Spitfire Mk.IXc gun bays 10.1 
672151 1:72 R-73/AA-11 Archer 6.5 
672153 1:72 Spitfire Mk.IXe gun bay 10.1 
672155 1:72 Spitfire Mk.VIII top cowling 3.6 
672157 1:72 H8K2 Emily guns 10.1 
672159 1:72 Me 262A-1a wheels 5.8 
672161 1:72 GBU-11 laser guided bomb 6.5 
672162 1:72 AN/ALQ-131 (shallow) ECM pod 6.5 
672163 1:72 AN/ALQ-131 (deep) ECM pod 6.5 
672166 1:72 GBU-12 Paveway II US laser guded bombs (4 pieces) 6.5 
672167 1:72 P-40N wheels 5.8 
672168 1:72 P-40E wheels 5.8 
672169 1:72 AN/ALQ-184 (short) ECM pod 1:72 6.5 
672170 1:72 B-24 wheels 6.5 
672171 1:72 B-24 engines 33.3 
672172 1:72 British 250lb depth charges 4.3 
672173 1:72 Spitfire Mk.VIII/IX/XVI radiator fairings 5.0 
672174 1:72 FG.1 Phantom II wheels 6.5 
672178 1:72 B-24 turbochargers 6.5 
672179 1:72 Mig-21MF Fighter Bomber cockpit 13.2 
672180 1:72 Mig-21MF interceptor cockpit 13.2 
672181 1:72 Mig-21MF exhaust nozzle 10.1 
672182 1:72 Mig-21MF wheels 8.7 
672183 1:72 B-24 bomb bay doors 8.7 
672185 1:72 R-3S missiles for Mig-21 6.5 
672186 1:72 R-3S missiles w/pylons for Mig-21 10.1 
672189 1:72 UB-16 rocket launchers for Mig-21 6.5 
672190 1:72 UB-16 rocket launchers w/pylons for Mig-21 10.1 
672191 1:72 RS-2US missiles for Mig-21 6.5 
672192 1:72 RS-2US missiles w/pylons for Mig-21 8.6 
672193 1:72 Mig-21MF airbrakes 5.8 
672194 1:72 BL755 cluster bombs 1:72 (4 pcs) 6.5 
672195 1:72 SPS-141 ECM pod for Mig-21 7.8 
672196 1:72 Fw 190A-5/U-12 gun pod 10.1 
672197 1:72 Mig-21MF ejection seat 1:72 5.8 
672198 1:72 Wellinton Mk.IA/C wheels 6.5 
672199 1:72 GBU-32 Thermally Protected 6.5 
672201 1:72 Ki-61-Id wheels 5.8 
672202 1:72 Ki-61-Id exhaust stacks 3.6 
672203 1:72 F6F Hellcat wheels 5.8 
672204 1:72 F4U wheels 1:72 5.8 
672205 1:72 B-25 wheels 1:72 6.5 
672206 1:72 B-25 wheels 6.5 
672207 1:72 GBU-32 Non Termal Protection 10.1 
672208 1:72 GBU-38 for B-2 11.7 
672210 1:72 Liberator Mk.VI wheels 6.5 
672211 1:72 LAU-10/A Zuni 8.7 
672212 1:72 GBU-32 Thermally Protected 10.1 
672214 1:72 B43-0 Nuclear Weapon w/SC43-3/-6 tail assebly 8.7 
672215 1:72 B43-1 Nuclear Weapon w/SC43-3/-6 tail assebly 1:48 8.7 
672216 1:72 AGM-158 JASSM Cruise Missile 8.7 
672218 1:72 Mig-21 F.O.D. 5.8 
672219 1:72 AIM-120C AMRAAM 8.7 
672220 1:72 AIM-120A/B AMRAAM 8.7 
672221 1:72 P-47D wheels 5.8 
672222 1:72 AGM-65 Maverick 5.8 
672223 1:72 Fokker D.VII (OAW) engine/Mercedes D.III 1:72 10.1 
672224 1:72 Fokker D.VIIF engine/BMW IIIa 1:72 10.1 
672225 1:72 FAB 500 M54 5.8 
672226 1:72 AIM-9X 6.5 
672227 1:72 Pe-2 wheels 5.8 
672228 1:72 Mig-17 wheels 5.8 
672229 1:72 Buccanner S.2C wheels 5.8 
672230 1:72 Shackleton MR.3 wheels 6.5 
672231 1:72 Mig-21PFM wheels 5.8 
672232 1:72 Mig-21PF/PFM exhaust nozzle 10.1 
672233 1:72 Mig-21PFM ejection seat 5.8 
672234 1:72 Mig-21PFM cockpit 13.2 
672235 1:72 Mig-21PF cockpit 1:72 13.2 
672236 1:72 Mig-21PF wheels 5.8 
672237 1:72 R-3R missiles for MIG-21 6.5 
672238 1:72 HVAR rockets (8 pcs) 6.5 
672239 1:72 Mig-21PF ejection seat 13.2 
672240 1:72 R-3R missiles w/pylons for Mig-21 1:72 10.1 
672241 1:72 B-26 Marauder wheels 5.8 
672242 1:72 B-26B/B-26C Marauder engines 1:72 19.1 
672243 1:72 GBU-39 w/BRU-61 1:72 8.7 
672244 1:72 US 1000lb bombs 5.8 
672245 1:72 US Torpedo Mk.13 8.7 
672246 1:72 AIM-132 ASRAAM 5.8 
672247 1:72 Z-37A wheels 5.8 
672248 1:72 Z-37A aerial applicator 6.5 
672249 1:72 Spitfire Mk.Vc wheels 5.8 
672250 1:72 Spitfire Mk.Vc exhaust stacks 3.6 
672251 1:72 Bristol Beafort Mk.I wheels 5.8 
672252 1:72 R-V pod for Mig-21 in Czech Services 8.7 
672253 1:72 Z-37A spraying booms 10.1 
672254 1:72 GBU-31(V)1/B JDAM 6.5 
672255 1:72 GBU-31(V)3/B JDAM 6.5 
672256 1:72 R-27R/R1 / AA-10 Alamo-A 8.7 
672257 1:72 R-27T/T1 / AA-10 Alamo-B 8.7 
672258 1:72 R-27ER AA-10 Alamo-C 8.7 
672259 1:72 R-27ET /AA-10 Alamo-D 8.7 
672260 1:72 Brimstone w/AGLM III rack 8.7 
672261 1:72 BRU-57A rack 6.5 
672262 1:72 Let Z-37A ¬melak aerial applicator M72 6.5 
672263 1:72 C-130 wheels 8.7 
672264 1:72 GBU-24 6.5 
672265 1:72 Sky Shadow ECM pod 6.5 
672266 1:72 ALARM missiles 8.7 
672267 1:72 TIALD pod 6.5 
672268 1:72 CPU-123 Paveway II 8.7 
672269 1:72 BOZ-107 pod 6.5 
672270 1:72 Tornado Gr.1 exhaust nozzles 10.1 
672271 1:72 JP233 dispenser 10.1 
672272 1:72 GBU-15(V)1/B 8.7 
672273 1:72 GBU-15(V)21/B 8.7 
672274 1:72 Tornado Gr.1 cockpit 14.5 
672275 1:72 B-25J engines (Wright R-2600.92 Twin Cyclone) 19.1 
672276 1:72 British 1000lb free fall bombs 10.1 
672277 1:72 British 1000lb retarded bombs 10.1 
672278 1:72 British 1000lb retarded bombs w 960 fuse 10.1 
672279 1:72 P-51B/C exhaust stacks „print“ 5.8 
672280 1:72 P-51B/C exhaust stacks w/Fairing „print“ 5.8 
672281 1:72 P-51B/C bazooka rocket launcher 6.5 
672282 1:72 P-51B/C wheels diamont tread 5.8 
672283 1:72 Tornado wheels 5.8 
672284 1:72 S-199 exhaust stacks 5.8 
672285 1:72 S-199 wheels Print 5.8 
672286 1:72 Fw 190D exhaust stacks Print 5.8 
672287 1:72 Fw 190D wheels Print 5.8 
672288 1:72 S-199 cockpit Erla canopy Print 13.2 
672289 1:72 S-199 cockpit Bubble canopy Print 13.2 
672290 1:72 F4F Wildcat ventral drop tank Print 5.8 
672291 1:72 F4F Wildcat seat Print 4.3 
672292 1:72 Luftwaffe rudder padels print 3.6 
672293 1:72 S-199 4xETC 50 racks w/bombs 6.5 
672294 1:72 S-199 engine Print 22.2 
672295 1:72 Ki-84 seat Print 4.3 
672296 1:72 Ki-84 wheels Print 5.8 
672297 1:72 Ki-84 exhaust Print 5.8 
672298 1:72 FM-2 exhaust Print 5.8 
672299 1:72 F4F wheels late Print 5.8 
672300 1:72 F4F wheels late w/rims Print 5.8 
672301 1:72 Hurricane Mk.I exhaust stacks 5.8 
672302 1:72 Hurricane Mk.I wheels 5.8 
674001 1:72 Beaufort Mk.I Look 8.7 

SIN63202 1:32 B-17G engines 1:32 75.9 
SIN63203 1:32 F4U-1 Corsair 59.1 
SIN63206 1:32 Fw 190 F-8 Part.1 1:32 59.1 
SIN63207 1:32 Fw 190 F-8 Part.2 1:32 59.1 
SIN63209 1:32 Bf 109G-6 1:32 60.5 
SIN63210- 1:32 Mosquito FB Mk.VI 51.3 
SIN63212 1:32 F4U-1D Corsair 72.8 
SIN63215 1:32 Fw 190A-8/R-11 Part.2 (632057,632123,63124,632125) 57.1 

SIN64809 1:48 Spitfire Mk.IX advanced (engine,gun bay, radio comp.,landing flaps) 46.8 
SIN64812 1:48 F-4 Phantom II weapons set 1:48 (4xAIM-9B,4xAIM-7E,6×3=18 MK.82 30.2 
SIN64813 1:48 Russian Modern aircraft missiles (4xR73/AA-11 Archer,4xR-60/AA-8 Aphin,4xR-77/AA-12 Adder,4xR-27ER/AA-10 Alamo C,4xR-27ET/AA-10 Alamo D) 33.3 
SIN64814 1:48 F-14A weapon set (4x:AIM-9B,AIM-7E,Phonix) 17.7 
SIN64816 1:48 Mig-21PF (wheels,wheel bays,cockpit,exhaust,brakes) 57.1 
SIN64819 1:48 A-4E/F Skyhawk (Mk.82, Mk.77,Mk.81,LAU-10.MER 59.1 
SIN64822 1:48 Mig-21MF weapons set 1:48 (R-60/AA-8 Aphind,R-3S/AA-2 Atoll A) 13.2 
SIN64824 1:48 Bf 109G-6 advanced 32.4 
SIN64825- 1:48 Bf 109G-5 Essential 1:48 35.6 
SIN64826 1:48 P-38J Lightning 40.1 
SIN64828 1:48 F-14A weapons set 19.1 
SIN64829 1:48 Bf 109F Essential 32.4 
SIN64831 1:48 F-14A w/early wheels 42.3 
SIN64832 1:48 F-14A w/late wheels 42.3 
SIN64836 1:48 P-51D Mustang (wheels,cockpit,props,control surfaces, exhausts w/fairing) 37.9 
SIN64837 1:48 Fw 190A-4 advance (engine, wing guns, prop, undercarriage) 51.3  
SIN64839 1:48 Fw 190A-4 essential 1:48 (wheels,flaps,cockpit,undercarriage) 46.8 
SIN64840 1:48 F-8E Crusader 25.8 
SIN64843 1:48 FW 190A-5 Advances 1:48 51.3 
SIN64846 1:48 P-51D armament & fuel tanks 32.4 
SIN64847 1:48 Bf 109G-6 Advanced 33.3 
SIN64849 1:48 Bf 109G-6/U4 Advanced 33.3 
SIN64851 1:48 Fw 190A-5 „essentials“ 46.8 
SIN64852 1:48 Fw 190A-8/R2 „essentials“ 46.8 
SIN64857 1:48 Ki-61-Id Tony 17.7 
SIN64858 1:48 Tempest Mk.V advanced (engine,gun bays,bornze undercarriage,RP-3 60lb rockets) 57.1 
SIN64860 1:48 Fw 190A-8/R2 advanced 40.1 
SIN64863 1:48 Mig-23BN 40.1 
SIN64864 1:48 P-51D-5 Essentials 40.1 
SIN64865 1:48 P-51D-10+ essentials (cockpit,exhaust,wheels,undercarriage) 40.1 
SIN64866 1:48 P-38F/G Lightning essential 24.6 
SIN64867 1:48 Tornado Gr.1/Gr.4 armament (BOZ-EC,Sky shadow,JP233,CPU-123,Alarm,CBU-87,Tiald) 51.3 
SIN64868 1:48 Spitfire Mk.I Essentials 37.9 
SIN64869 1:48 P-51D advanced 40.1 
SIN64870 1:48 Spitfire Mk.I advance 42.3 
SIN64871 1:48 Spitfire MK.IIa Advanced 42.3 
SIN64872 1:48 Spitfire Mk.IIb 42.3 
SIN64873 1:48 B-17F 51.3 
SIN64874 1:48 Fw 190F-8 Essential 46.8 
SIN64875 1:48 Tempest Mk.II essential 37.9 
SIN64876 1:48 F-4B Air to Air weapons (4xAIM-9B,4xAIM-7E) 14.5 
SIN64877 1:48 F-4B Air to Ground weapons (5xTER,3xMER,3 sets of MK.82 bombs) 33.3 
SIN64878 1:48 Spitfire Mk.Va/b Essential 37.9 
SIN64879 1:48 Spitfire Mk.Vc Essential 37.9 
SIN64880 1:48 OV-10A Air to ground 27.8 
SIN64881 1:48 F-14A Late AtA/AtG 37.9 
SIN64882 1:48 Mi-24D conversion set 42.3 
SIN64883 1:48 A6M2 Zero Model 21 „Essencials“ (wheels,underc.legs,exhusts,cockpit) 42.3 
SIN64884 1:48 Z-126 trener 59.1 
SIN64885 1:48 F-14A 46.8 
SIN64886 1:48 Spitfire MK.Vb Advanced 40.1 
SIN64887 1:48 Spitfire MK.Vc Advanced 40.1 
SIN64888 1:48 F-4B 63.8 
SIN64889 1:48 Sopwoth Camel Clerget engine Lookplus 27.8 
SIN64890 1:48 Sopwith Camel (Bentley):seat,guns,engine,bombs,wheels,struts 27.8 
SIN64891 1:48 Sopwith Camel Le Rhone engine 27.8 
SIN64892 1:48 F/A-18E/F armament (AIM-9M/L,AIM-120C,GBU-24,AGM-65,GBU-16,AIM-9X) 37.9 
SIN64893 1:48 Sopwith Camel Gnome engine (gnome engine,wheels,seat,vickers Mk.I gun,air pumps,20lb bomb carrier) 27.8 
SIN64894 1:48 F4F-3 w/reflector gunsight Essential (cockpit,wheels,exhaust,undercarriage legs) 51.3 
SIN64895 1:48 A6M2 Zero Model 21 Advanced 53.8 
SIN64896 1:48 F4F-3 w/telescopic gunsight Essential (cockpit,wheels,exhaust,undercarriage legs) 51.3 

SIN67208 1:72 Mig-29A 9-12 armament,cockpi,wheels,engine exh.,masks,decals 35.6 
SIN67210 1:72 B-17G (wheels, engines,guns,turbo) 40.1 
SIN67211 1:72 Spitfire Mk.IXC 37.9 
SIN67212 1:72 B-24 Liberator (wheels,engines,turbo,bomb bay walls) 40.1 
SIN67214 1:72 Spitfire MK.VIII 30.2 
SIN67216 1:72 Mig-21MF Fighter Bomber 25.8 
SIN67217 1:72 Mig-21MF armament 1:72 (R-60/AA-8 Aphid,R-3S w/pylons,UB-16 rocket,RS-2US,R-13M,pylons) 27.8 
SIN67218 1:72 Wellington Mk.IA/C (bombs,wheels,engines) 24.6 
SIN67219 1:72 Tornado Gr.1/Gr.4 armament 46.8

 

Opcije